GIA147 WITT-WIII

Flight info

Callsign GIA147
Flight time N/A
Altitude 37000
Route AVDIN T5 BUNIK
Aircraft MD11/H-SDE1E2E3FGHIJ2J3J4J5M1RWXY/LB1D1

Departure

Time 2026-04-19 07:49
Airport Sultan Iskandar Muda International Airport (WITT)

Arrival

Time N/A
Airport Soekarno-Hatta International Airport (WIII)
Time Latitude Longitude Altitude Speed Heading
2026-04-19 07:40 5.51884 95.41821 84 ft 0 kts 258°
2026-04-19 07:41 5.51884 95.41822 84 ft 3 kts 258°
2026-04-19 07:42 5.51889 95.41848 110 ft 4 kts 258°
2026-04-19 07:42 5.51895 95.41875 82 ft 4 kts 258°
2026-04-19 07:42 5.51901 95.41901 87 ft 4 kts 256°
2026-04-19 07:42 5.51908 95.41926 87 ft 3 kts 246°
2026-04-19 07:43 5.51916 95.41940 87 ft 2 kts 214°
2026-04-19 07:43 5.51926 95.41945 87 ft 2 kts 177°
2026-04-19 07:43 5.51937 95.41944 87 ft 2 kts 170°
2026-04-19 07:43 5.51942 95.41943 87 ft 0 kts 169°
2026-04-19 07:44 5.51940 95.41943 87 ft 2 kts 169°
2026-04-19 07:45 5.51896 95.41952 86 ft 11 kts 169°
2026-04-19 07:45 5.51815 95.41968 87 ft 11 kts 168°
2026-04-19 07:45 5.51727 95.41987 85 ft 16 kts 168°
2026-04-19 07:45 5.51601 95.42014 86 ft 22 kts 168°
2026-04-19 07:46 5.51457 95.42043 86 ft 20 kts 168°
2026-04-19 07:46 5.51324 95.42070 83 ft 19 kts 168°
2026-04-19 07:46 5.51240 95.42098 87 ft 1 kts 136°
2026-04-19 07:46 5.51238 95.42115 84 ft 6 kts 100°
2026-04-19 07:47 5.51240 95.42156 82 ft 0 kts 83°
2026-04-19 07:47 5.51246 95.42192 85 ft 11 kts 79°
2026-04-19 07:48 5.51261 95.42235 85 ft 2 kts 45°
2026-04-19 07:48 5.51279 95.42240 84 ft 5 kts 13°
2026-04-19 07:48 5.51323 95.42237 82 ft 9 kts 351°
2026-04-19 07:48 5.51407 95.42220 79 ft 16 kts 348°
2026-04-19 07:49 5.51650 95.42171 86 ft 75 kts 348°
2026-04-19 07:49 5.52477 95.42003 88 ft 162 kts 349°
2026-04-19 07:49 5.53691 95.41746 706 ft 183 kts 348°
2026-04-19 07:49 5.54873 95.41480 2010 ft 169 kts 346°
2026-04-19 07:50 5.56041 95.41223 3071 ft 175 kts 349°
2026-04-19 07:50 5.57323 95.41064 3776 ft 206 kts 359°
2026-04-19 07:50 5.58900 95.41331 3951 ft 255 kts 21°
2026-04-19 07:50 5.60375 95.42387 4801 ft 266 kts 50°
2026-04-19 07:51 5.61419 95.43943 5912 ft 272 kts 62°
2026-04-19 07:51 5.62307 95.45649 6890 ft 280 kts 64°
2026-04-19 07:51 5.63178 95.47405 6526 ft 282 kts 64°
2026-04-19 07:51 5.64034 95.49151 6595 ft 281 kts 65°
2026-04-19 07:52 5.64696 95.50968 7741 ft 280 kts 79°
2026-04-19 07:52 5.64668 95.52914 8782 ft 285 kts 104°
2026-04-19 07:52 5.63888 95.54765 9197 ft 290 kts 121°
2026-04-19 07:52 5.62763 95.56453 9579 ft 295 kts 125°
2026-04-19 07:53 5.61548 95.58135 9925 ft 297 kts 126°
2026-04-19 07:53 5.60336 95.59812 10001 ft 297 kts 126°
2026-04-19 07:53 5.59129 95.61502 10014 ft 297 kts 125°
2026-04-19 07:53 5.57939 95.63189 10017 ft 297 kts 125°
2026-04-19 07:54 5.57152 95.64313 10023 ft 297 kts 125°
2026-04-19 07:54 5.55450 95.66760 10036 ft 350 kts 124°
2026-04-19 07:54 5.54025 95.68816 10030 ft 364 kts 124°
2026-04-19 07:54 5.52582 95.70906 10030 ft 366 kts 124°
2026-04-19 07:55 5.51130 95.73010 10031 ft 366 kts 124°
2026-04-19 07:55 5.49683 95.75109 10029 ft 366 kts 124°
2026-04-19 07:55 5.48702 95.76532 10033 ft 366 kts 124°
2026-04-19 07:55 5.47272 95.78607 10028 ft 366 kts 124°
2026-04-19 07:56 5.45825 95.80708 10033 ft 366 kts 124°
2026-04-19 07:56 5.44376 95.82811 10035 ft 366 kts 124°
2026-04-19 07:56 5.42928 95.84911 10035 ft 366 kts 124°
2026-04-19 07:56 5.41483 95.87008 10034 ft 366 kts 124°
2026-04-19 07:57 5.40034 95.89110 10032 ft 366 kts 124°
2026-04-19 07:57 5.38634 95.91237 10030 ft 366 kts 118°
2026-04-19 07:57 5.37594 95.93564 10270 ft 365 kts 109°
2026-04-19 07:57 5.36782 95.95980 11413 ft 368 kts 108°
2026-04-19 07:58 5.36004 95.98453 12374 ft 374 kts 107°
2026-04-19 07:58 5.35227 96.00963 13299 ft 380 kts 107°
2026-04-19 07:58 5.34434 96.03517 14153 ft 386 kts 107°
2026-04-19 07:58 5.33625 96.06098 14944 ft 391 kts 107°
2026-04-19 07:59 5.32798 96.08715 15725 ft 396 kts 107°
2026-04-19 07:59 5.31958 96.11361 16490 ft 401 kts 107°
2026-04-19 07:59 5.31103 96.14047 17237 ft 405 kts 107°
2026-04-19 07:59 5.30240 96.16752 17968 ft 410 kts 108°
2026-04-19 08:00 5.29362 96.19506 18593 ft 416 kts 108°
2026-04-19 08:00 5.28477 96.22278 19193 ft 420 kts 108°
2026-04-19 08:00 5.27579 96.25089 19771 ft 425 kts 107°
2026-04-19 08:00 5.26674 96.27924 20334 ft 429 kts 107°
2026-04-19 08:01 5.25757 96.30795 20915 ft 434 kts 107°
2026-04-19 08:01 5.24831 96.33692 21493 ft 438 kts 107°
2026-04-19 08:01 5.23897 96.36617 22096 ft 443 kts 107°
2026-04-19 08:01 5.22950 96.39579 22719 ft 448 kts 107°
2026-04-19 08:02 5.22013 96.42519 23291 ft 452 kts 107°
2026-04-19 08:02 5.21050 96.45541 23826 ft 456 kts 107°
2026-04-19 08:02 5.20077 96.48579 24406 ft 459 kts 107°
2026-04-19 08:02 5.19100 96.51641 24982 ft 462 kts 107°
2026-04-19 08:03 5.18113 96.54726 25526 ft 466 kts 107°
2026-04-19 08:03 5.17117 96.57835 26134 ft 469 kts 107°
2026-04-19 08:03 5.16115 96.60960 26725 ft 473 kts 107°
2026-04-19 08:03 5.15104 96.64115 27298 ft 477 kts 107°
2026-04-19 08:04 5.14089 96.67287 27867 ft 480 kts 107°
2026-04-19 08:04 5.13064 96.70494 28373 ft 484 kts 107°
2026-04-19 08:04 5.12031 96.73722 28881 ft 488 kts 107°
2026-04-19 08:04 5.10988 96.76976 29428 ft 492 kts 108°
2026-04-19 08:05 5.09936 96.80249 29934 ft 495 kts 108°
2026-04-19 08:05 5.08876 96.83549 30353 ft 499 kts 108°
2026-04-19 08:05 5.07811 96.86866 30828 ft 499 kts 108°
2026-04-19 08:05 5.06748 96.90179 31372 ft 498 kts 108°
2026-04-19 08:06 5.05690 96.93478 31917 ft 497 kts 108°
2026-04-19 08:06 5.04633 96.96775 32471 ft 495 kts 108°
2026-04-19 08:06 5.03579 97.00061 32997 ft 494 kts 108°
2026-04-19 08:06 5.02531 97.03328 33527 ft 492 kts 108°
2026-04-19 08:07 5.01488 97.06587 33963 ft 491 kts 108°
2026-04-19 08:07 5.00443 97.09852 34348 ft 490 kts 108°
2026-04-19 08:07 4.99403 97.13096 34747 ft 489 kts 108°
2026-04-19 08:07 4.98364 97.16338 35082 ft 488 kts 109°
2026-04-19 08:08 4.97323 97.19580 35392 ft 487 kts 109°
2026-04-19 08:08 4.96289 97.22795 35749 ft 486 kts 109°
2026-04-19 08:08 4.95220 97.26001 36102 ft 483 kts 111°
2026-04-19 08:08 4.93810 97.29047 36474 ft 480 kts 121°
2026-04-19 08:09 4.91902 97.31782 36762 ft 480 kts 130°
2026-04-19 08:09 4.87309 97.36656 36837 ft 481 kts 136°
2026-04-19 08:10 4.82595 97.41430 36832 ft 481 kts 134°
2026-04-19 08:10 4.78027 97.46288 36835 ft 482 kts 134°
2026-04-19 08:11 4.73494 97.51227 36835 ft 482 kts 133°
2026-04-19 08:11 4.68957 97.56184 36838 ft 481 kts 133°
2026-04-19 08:12 4.64424 97.61130 36833 ft 482 kts 133°
2026-04-19 08:12 4.59890 97.66074 36830 ft 482 kts 133°
2026-04-19 08:13 4.55356 97.71017 36834 ft 481 kts 133°
2026-04-19 08:13 4.50824 97.75964 36827 ft 481 kts 133°
2026-04-19 08:14 4.46295 97.80893 36821 ft 481 kts 133°
2026-04-19 08:14 4.39499 97.88300 36820 ft 481 kts 133°
2026-04-19 08:15 4.34974 97.93227 36821 ft 480 kts 133°
2026-04-19 08:15 4.30442 97.98152 36820 ft 480 kts 133°
2026-04-19 08:16 4.25913 98.03080 36822 ft 480 kts 133°
2026-04-19 08:16 4.21425 98.07971 36815 ft 480 kts 133°
2026-04-19 08:17 4.16902 98.12897 36821 ft 480 kts 133°
2026-04-19 08:17 4.12378 98.17813 36821 ft 480 kts 133°
2026-04-19 08:18 4.07853 98.22731 36820 ft 480 kts 133°
2026-04-19 08:18 4.03336 98.27644 36816 ft 480 kts 133°
2026-04-19 08:19 3.98816 98.32560 36811 ft 479 kts 133°
2026-04-19 08:19 3.94294 98.37476 36814 ft 479 kts 133°
2026-04-19 08:20 3.89795 98.42375 36816 ft 478 kts 133°
2026-04-19 08:20 3.85290 98.47272 36812 ft 478 kts 133°
2026-04-19 08:21 3.80774 98.52172 36812 ft 478 kts 133°
2026-04-19 08:21 3.76256 98.57065 36813 ft 478 kts 133°
2026-04-19 08:22 3.71740 98.61958 36816 ft 478 kts 133°
2026-04-19 08:22 3.67229 98.66847 36812 ft 478 kts 133°
2026-04-19 08:23 3.62710 98.71744 36807 ft 479 kts 133°
2026-04-19 08:23 3.58213 98.76617 36804 ft 479 kts 133°
2026-04-19 08:24 3.53705 98.81501 36807 ft 479 kts 133°
2026-04-19 08:24 3.49184 98.86397 36811 ft 478 kts 133°
2026-04-19 08:25 3.44664 98.91292 36814 ft 479 kts 133°
2026-04-19 08:25 3.40143 98.96188 36816 ft 479 kts 133°
2026-04-19 08:26 3.35638 99.01066 36822 ft 479 kts 133°
2026-04-19 08:26 3.31099 99.05978 36823 ft 479 kts 133°
2026-04-19 08:27 3.26573 99.10878 36822 ft 479 kts 133°
2026-04-19 08:27 3.22055 99.15765 36823 ft 479 kts 133°
2026-04-19 08:28 3.17535 99.20654 36821 ft 478 kts 133°
2026-04-19 08:28 3.13045 99.25511 36821 ft 478 kts 133°
2026-04-19 08:29 3.08533 99.30392 36816 ft 478 kts 133°
2026-04-19 08:29 3.03988 99.35308 36819 ft 478 kts 133°
2026-04-19 08:30 2.99497 99.40165 36817 ft 478 kts 133°
2026-04-19 08:30 2.94979 99.45051 36815 ft 479 kts 133°
2026-04-19 08:31 2.90455 99.49941 36815 ft 479 kts 133°
2026-04-19 08:31 2.85927 99.54837 36808 ft 480 kts 133°
2026-04-19 08:32 2.81388 99.59743 36811 ft 480 kts 133°
2026-04-19 08:32 2.76846 99.64651 36809 ft 481 kts 133°
2026-04-19 08:33 2.72305 99.69558 36808 ft 481 kts 133°
2026-04-19 08:33 2.67760 99.74469 36805 ft 481 kts 133°
2026-04-19 08:34 2.63213 99.79379 36802 ft 480 kts 133°
2026-04-19 08:34 2.58674 99.84281 36805 ft 480 kts 133°
2026-04-19 08:35 2.54137 99.89181 36802 ft 480 kts 133°
2026-04-19 08:35 2.49599 99.94082 36799 ft 480 kts 133°
2026-04-19 08:36 2.45092 99.98949 36804 ft 480 kts 133°
2026-04-19 08:36 2.40556 100.03847 36801 ft 480 kts 133°
2026-04-19 08:37 2.36026 100.08738 36798 ft 480 kts 133°
2026-04-19 08:37 2.31486 100.13639 36798 ft 480 kts 133°
2026-04-19 08:38 2.26925 100.18507 36799 ft 479 kts 134°
2026-04-19 08:38 2.22263 100.23262 36795 ft 479 kts 135°
2026-04-19 08:39 2.17575 100.27992 36796 ft 479 kts 135°
2026-04-19 08:39 2.12894 100.32726 36793 ft 478 kts 134°
2026-04-19 08:40 2.08229 100.37455 36795 ft 477 kts 134°
2026-04-19 08:40 2.03563 100.42186 36793 ft 477 kts 134°
2026-04-19 08:41 1.98929 100.46885 36789 ft 478 kts 134°
2026-04-19 08:41 1.94265 100.51612 36788 ft 478 kts 134°
2026-04-19 08:42 1.89596 100.56354 36784 ft 479 kts 134°
2026-04-19 08:42 1.84905 100.61104 36785 ft 479 kts 134°
2026-04-19 08:43 1.80247 100.65822 36783 ft 480 kts 134°
2026-04-19 08:43 1.75558 100.70573 36783 ft 481 kts 134°
2026-04-19 08:44 1.70856 100.75337 36782 ft 481 kts 134°
2026-04-19 08:44 1.66949 100.79296 36784 ft 481 kts 134°
2026-04-19 08:45 1.62248 100.84057 36779 ft 481 kts 134°
2026-04-19 08:45 1.57548 100.88818 36779 ft 481 kts 134°
2026-04-19 08:46 1.52851 100.93577 36780 ft 481 kts 134°
2026-04-19 08:46 1.48153 100.98336 36776 ft 481 kts 134°
2026-04-19 08:47 1.43456 101.03093 36778 ft 481 kts 134°
2026-04-19 08:47 1.38760 101.07850 36774 ft 481 kts 134°
2026-04-19 08:48 1.34058 101.12611 36774 ft 481 kts 134°
2026-04-19 08:48 1.29387 101.17342 36774 ft 481 kts 134°
2026-04-19 08:49 1.24658 101.22131 36775 ft 481 kts 134°
2026-04-19 08:49 1.19980 101.26867 36775 ft 482 kts 134°
2026-04-19 08:50 1.15271 101.31636 36772 ft 482 kts 134°
2026-04-19 08:50 1.10552 101.36413 36771 ft 483 kts 134°
2026-04-19 08:51 1.05841 101.41182 36772 ft 483 kts 134°
2026-04-19 08:51 1.01113 101.45968 36770 ft 483 kts 134°
2026-04-19 08:52 0.96387 101.50749 36777 ft 484 kts 134°
2026-04-19 08:52 0.91660 101.55538 36774 ft 484 kts 134°
2026-04-19 08:53 0.86926 101.60330 36775 ft 485 kts 134°
2026-04-19 08:53 0.82185 101.65131 36775 ft 485 kts 134°
2026-04-19 08:54 0.77444 101.69928 36775 ft 485 kts 134°
2026-04-19 08:54 0.72737 101.74691 36777 ft 485 kts 134°
2026-04-19 08:55 0.67996 101.79490 36776 ft 485 kts 134°
2026-04-19 08:55 0.63260 101.84283 36774 ft 484 kts 134°
2026-04-19 08:56 0.58525 101.89075 36778 ft 484 kts 134°
2026-04-19 08:56 0.53792 101.93866 36779 ft 484 kts 134°
2026-04-19 08:57 0.49062 101.98652 36779 ft 483 kts 134°
2026-04-19 08:57 0.44345 102.03425 36780 ft 482 kts 134°
2026-04-19 08:58 0.39665 102.08160 36778 ft 482 kts 135°
2026-04-19 08:58 0.34954 102.12927 36785 ft 482 kts 135°
2026-04-19 08:59 0.30236 102.17702 36783 ft 483 kts 135°
2026-04-19 08:59 0.25520 102.22473 36785 ft 483 kts 134°
2026-04-19 09:00 0.20795 102.27255 36785 ft 483 kts 134°
2026-04-19 09:00 0.16066 102.32040 36788 ft 484 kts 134°
2026-04-19 09:01 0.11345 102.36817 36791 ft 484 kts 134°
2026-04-19 09:01 0.06614 102.41605 36794 ft 483 kts 134°
2026-04-19 09:02 0.01892 102.46382 36794 ft 483 kts 134°
2026-04-19 09:02 -0.02824 102.51154 36794 ft 483 kts 134°
2026-04-19 09:03 -0.07543 102.55929 36796 ft 482 kts 135°
2026-04-19 09:03 -0.12257 102.60700 36795 ft 481 kts 135°
2026-04-19 09:04 -0.16959 102.65457 36802 ft 481 kts 135°
2026-04-19 09:04 -0.21665 102.70218 36796 ft 481 kts 135°
2026-04-19 09:05 -0.26340 102.74950 36800 ft 482 kts 135°
2026-04-19 09:05 -0.31055 102.79720 36806 ft 482 kts 135°
2026-04-19 09:06 -0.35767 102.84489 36807 ft 482 kts 135°
2026-04-19 09:06 -0.40481 102.89259 36807 ft 483 kts 134°
2026-04-19 09:07 -0.45212 102.94047 36806 ft 484 kts 134°
2026-04-19 09:07 -0.49944 102.98835 36806 ft 484 kts 134°
2026-04-19 09:08 -0.54679 103.03627 36809 ft 485 kts 134°
2026-04-19 09:08 -0.59421 103.08425 36815 ft 485 kts 135°
2026-04-19 09:09 -0.64165 103.13227 36816 ft 486 kts 135°
2026-04-19 09:09 -0.68916 103.18036 36815 ft 486 kts 135°
2026-04-19 09:10 -0.73670 103.22848 36822 ft 487 kts 135°
2026-04-19 09:10 -0.78664 103.27404 36820 ft 486 kts 140°
2026-04-19 09:11 -0.83890 103.31637 36825 ft 486 kts 141°
2026-04-19 09:11 -0.89159 103.35860 36826 ft 486 kts 141°
2026-04-19 09:12 -0.94413 103.40117 36825 ft 486 kts 141°
2026-04-19 09:12 -0.99648 103.44383 36822 ft 485 kts 141°
2026-04-19 09:13 -1.04876 103.48646 36825 ft 485 kts 141°
2026-04-19 09:13 -1.10104 103.52909 36828 ft 485 kts 141°
2026-04-19 09:14 -1.15319 103.57159 36827 ft 484 kts 141°
2026-04-19 09:14 -1.20531 103.61408 36822 ft 483 kts 141°
2026-04-19 09:15 -1.25738 103.65652 36824 ft 483 kts 141°
2026-04-19 09:16 -1.33510 103.71988 36827 ft 483 kts 141°
2026-04-19 09:16 -1.38714 103.76231 36826 ft 483 kts 141°
2026-04-19 09:17 -1.43921 103.80477 36826 ft 483 kts 141°
2026-04-19 09:17 -1.49128 103.84724 36825 ft 483 kts 141°
2026-04-19 09:18 -1.54333 103.88968 36833 ft 483 kts 140°
2026-04-19 09:18 -1.59541 103.93215 36828 ft 483 kts 140°
2026-04-19 09:19 -1.64750 103.97463 36830 ft 483 kts 140°
2026-04-19 09:19 -1.69957 104.01711 36829 ft 483 kts 140°
2026-04-19 09:20 -1.75168 104.05961 36828 ft 483 kts 140°
2026-04-19 09:20 -1.80375 104.10209 36834 ft 483 kts 141°
2026-04-19 09:21 -1.85586 104.14459 36830 ft 482 kts 141°
2026-04-19 09:21 -1.90781 104.18698 36825 ft 482 kts 141°
2026-04-19 09:22 -1.95953 104.22915 36828 ft 482 kts 141°
2026-04-19 09:22 -2.01156 104.27136 36832 ft 482 kts 141°
2026-04-19 09:23 -2.06368 104.31357 36835 ft 482 kts 141°
2026-04-19 09:23 -2.11576 104.35576 36830 ft 482 kts 141°
2026-04-19 09:24 -2.16785 104.39797 36830 ft 482 kts 141°
2026-04-19 09:24 -2.21989 104.44015 36828 ft 482 kts 141°
2026-04-19 09:25 -2.27190 104.48231 36825 ft 481 kts 141°
2026-04-19 09:25 -2.32388 104.52445 36824 ft 481 kts 141°
2026-04-19 09:26 -2.37585 104.56658 36827 ft 481 kts 141°
2026-04-19 09:26 -2.42778 104.60869 36823 ft 480 kts 141°
2026-04-19 09:27 -2.47964 104.65074 36824 ft 480 kts 141°
2026-04-19 09:27 -2.53156 104.69285 36820 ft 480 kts 141°
2026-04-19 09:28 -2.58308 104.73463 36815 ft 480 kts 141°
2026-04-19 09:28 -2.63283 104.77499 36816 ft 480 kts 141°
2026-04-19 09:29 -2.68469 104.81707 36812 ft 480 kts 141°
2026-04-19 09:29 -2.73658 104.85918 36807 ft 480 kts 141°
2026-04-19 09:30 -2.78846 104.90127 36812 ft 480 kts 141°
2026-04-19 09:30 -2.84038 104.94341 36813 ft 480 kts 141°
2026-04-19 09:31 -2.89220 104.98546 36811 ft 480 kts 141°
2026-04-19 09:31 -2.94414 105.02762 36812 ft 480 kts 141°
2026-04-19 09:32 -2.99601 105.06973 36819 ft 480 kts 141°
2026-04-19 09:32 -3.04796 105.11191 36817 ft 480 kts 141°
2026-04-19 09:33 -3.09982 105.15402 36816 ft 480 kts 141°
2026-04-19 09:33 -3.14283 105.18895 36818 ft 480 kts 141°
2026-04-19 09:33 -3.16853 105.20982 36817 ft 464 kts 141°
2026-04-19 09:34 -3.19258 105.22936 36816 ft 427 kts 141°
2026-04-19 09:34 -3.21475 105.24737 36816 ft 396 kts 141°
2026-04-19 09:34 -3.23563 105.26432 36797 ft 378 kts 141°
2026-04-19 09:35 -3.27542 105.29704 36822 ft 367 kts 140°
2026-04-19 09:35 -3.31460 105.32974 36820 ft 367 kts 140°